GW1995 Weather Reports


time (UTC)temp
C
wind
direction
speed
KPH
gust
KPH
rain 1hr
cm
rain 24hr
cm
rain mn
cm
humidity
%
barometer
mb
20260505005223 11 238 8.0 12.9 0.00 0.00 0.00 38 1002.9
20260505004720 11 315 12.9 14.5 0.00 0.00 0.00 38 1002.8
20260505004216 11 231 4.8 16.1 0.00 0.00 0.00 39 1003.0
20260505003713 11 260 4.8 12.9 0.00 0.00 0.00 39 1002.8
20260505003211 11 226 4.8 12.9 0.00 0.00 0.00 38 1002.8
20260505002707 11 325 8.0 12.9 0.00 0.00 0.00 38 1002.8
20260505002205 11 242 1.6 9.7 0.00 0.00 0.00 40 1002.9
20260505001702 11 265 6.4 9.7 0.00 0.00 0.00 39 1002.6
20260505001159 11 237 4.8 8.0 0.00 0.00 0.00 39 1002.6
20260505000656 12 263 9.7 12.9 0.00 0.00 0.00 39 1002.6
20260505000154 12 20 8.0 11.3 0.00 0.00 0.00 39 1002.3
20260504235650 12 267 1.6 11.3 0.00 0.00 0.00 40 1002.4
20260504235147 12 324 9.7 11.3 0.00 0.00 0.00 40 1002.4
20260504234644 12 310 4.8 12.9 0.00 0.00 0.00 40 1002.3
20260504234142 12 308 8.0 14.5 0.00 0.00 0.00 40 1002.3
20260504233637 12 261 4.8 14.5 0.00 0.00 0.00 39 1002.2
20260504233133 12 272 9.7 11.3 0.00 0.00 0.00 38 1002.1
20260504232631 12 242 3.2 16.1 0.00 0.00 0.00 40 1002.0
20260504232128 12 270 8.0 11.3 0.00 0.00 0.00 40 1002.1
20260504231624 12 315 8.0 12.9 0.00 0.00 0.00 40 1001.9
20260504231121 12 252 4.8 17.7 0.00 0.00 0.00 39 1002.0
20260504230616 13 298 11.3 14.5 0.00 0.00 0.00 39 1002.0
20260504230116 13 263 1.6 9.7 0.00 0.00 0.00 39 1001.7
20260504225613 13 295 9.7 12.9 0.00 0.00 0.00 38 1001.6
20260504225109 14 289 8.0 14.5 0.00 0.00 0.00 38 1001.7
20260504224606 13 306 12.9 17.7 0.00 0.00 0.00 37 1001.6
20260504224103 13 288 4.8 16.1 0.00 0.00 0.00 38 1001.3
20260504223600 13 284 8.0 14.5 0.00 0.00 0.00 38 1001.2
20260504223055 13 282 11.3 25.7 0.00 0.00 0.00 38 1001.1
20260504222553 14 319 12.9 17.7 0.00 0.00 0.00 38 1001.0
20260504222050 15 233 8.0 12.9 0.00 0.00 0.00 36 1000.9
20260504221547 15 242 6.4 24.1 0.00 0.00 0.00 37 1000.7
20260504221044 15 295 8.0 22.5 0.00 0.00 0.00 37 1000.7
20260504220540 15 354 6.4 12.9 0.00 0.00 0.00 36 1000.5
20260504220038 14 236 6.4 9.7 0.00 0.00 0.00 37 1000.5
20260504215534 15 284 6.4 14.5 0.00 0.00 0.00 35 1000.4
20260504215032 15 282 9.7 16.1 0.00 0.00 0.00 36 1000.5
20260504214527 15 303 4.8 17.7 0.00 0.00 0.00 36 1000.4
20260504214024 15 259 11.3 16.1 0.00 0.00 0.00 35 1000.2
20260504213521 16 259 4.8 20.9 0.00 0.00 0.00 35 1000.0
20260504213018 15 237 6.4 20.9 0.00 0.00 0.00 37 999.9
20260504212514 15 258 8.0 16.1 0.00 0.00 0.00 37 999.9
20260504212011 16 267 11.3 25.7 0.00 0.00 0.00 36 1000.0
20260504211508 15 228 6.4 16.1 0.00 0.00 0.00 36 999.8
20260504211005 16 312 14.5 16.1 0.00 0.00 0.00 36 999.8
20260504210502 16 292 11.3 14.5 0.00 0.00 0.00 35 999.9
20260504205958 16 244 11.3 29.0 0.00 0.00 0.00 35 999.8
20260504205456 16 259 6.4 20.9 0.00 0.00 0.00 36 1000.1
20260504204954 16 247 8.0 12.9 0.00 0.00 0.00 36 999.8
20260504204452 15 268 6.4 17.7 0.00 0.00 0.00 37 999.8
20260504203951 16 322 12.9 22.5 0.00 0.00 0.00 35 999.6
20260504203449 16 266 9.7 11.3 0.00 0.00 0.00 35 999.5
20260504202944 16 269 8.0 20.9 0.00 0.00 0.00 36 999.6
20260504202441 16 283 6.4 16.1 0.00 0.00 0.00 36 999.5
20260504201938 16 258 6.4 17.7 0.00 0.00 0.00 36 999.5
20260504201435 16 258 9.7 14.5 0.00 0.00 0.00 36 999.5
20260504200933 17 283 8.0 17.7 0.00 0.00 0.00 36 999.5
20260504200429 16 279 6.4 17.7 0.00 0.00 0.00 34 999.5
20260504195926 16 265 9.7 14.5 0.00 0.00 0.00 34 999.4
20260504195422 16 272 6.4 12.9 0.00 0.00 0.00 35 999.4
20260504194919 16 303 4.8 9.7 0.00 0.00 0.00 35 999.0
20260504194414 16 259 8.0 20.9 0.00 0.00 0.00 35 999.3
20260504193911 16 352 8.0 12.9 0.00 0.00 0.00 32 999.1
20260504193408 16 286 9.7 14.5 0.00 0.00 0.00 33 999.1
20260504192907 17 279 8.0 14.5 0.00 0.00 0.00 33 999.1
20260504192404 17 252 9.7 12.9 0.00 0.00 0.00 35 999.1
20260504191902 16 276 11.3 14.5 0.00 0.00 0.00 33 999.0
20260504191400 16 267 14.5 20.9 0.00 0.00 0.00 33 999.0
20260504190855 16 264 9.7 22.5 0.00 0.00 0.00 32 999.0
20260504190351 17 283 9.7 20.9 0.00 0.00 0.00 31 998.9
20260504185848 16 348 8.0 11.3 0.00 0.00 0.00 34 998.7
20260504185345 16 264 6.4 14.5 0.00 0.00 0.00 34 998.9
20260504184841 16 278 9.7 22.5 0.00 0.00 0.00 32 998.8
20260504184337 16 240 11.3 17.7 0.00 0.00 0.00 32 998.8
20260504183833 17 261 6.4 12.9 0.00 0.00 0.00 33 998.5
20260504183331 17 235 9.7 14.5 0.00 0.00 0.00 32 998.3
20260504182828 17 247 4.8 17.7 0.00 0.00 0.00 36 998.5
20260504182325 17 241 6.4 14.5 0.00 0.00 0.00 36 998.5
20260504181822 17 299 6.4 12.9 0.00 0.00 0.00 38 997.9
20260504181320 17 228 8.0 14.5 0.00 0.00 0.00 37 998.0
20260504180819 17 291 6.4 12.9 0.00 0.00 0.00 36 997.8
20260504180317 17 281 11.3 17.7 0.00 0.00 0.00 36 998.0
20260504175814 17 326 6.4 16.1 0.00 0.00 0.00 36 997.8
20260504175311 17 270 12.9 17.7 0.00 0.00 0.00 35 997.8
20260504174809 17 291 4.8 11.3 0.00 0.00 0.00 35 997.8
20260504174306 17 192 3.2 8.0 0.00 0.00 0.00 37 997.8
20260504173803 17 232 8.0 17.7 0.00 0.00 0.00 35 997.7
20260504173300 17 291 8.0 12.9 0.00 0.00 0.00 34 997.6
20260504172756 17 259 9.7 22.5 0.00 0.00 0.00 35 997.7
20260504172253 17 317 16.1 20.9 0.00 0.00 0.00 35 997.6
20260504171749 17 245 6.4 11.3 0.00 0.00 0.00 36 997.5
20260504171246 17 217 9.7 12.9 0.00 0.00 0.00 36 997.5
20260504170743 17 252 6.4 14.5 0.00 0.00 0.00 37 997.4
20260504170240 17 263 9.7 11.3 0.00 0.00 0.00 35 997.6
20260504160159 17 240 9.7 14.5 0.00 0.00 0.00 35 997.7
20260504151126 16 310 14.5 22.5 0.00 0.00 0.00 35 997.5
20260504150624 15 285 9.7 12.9 0.00 0.00 0.00 36 997.3
20260504150121 16 271 3.2 12.9 0.00 0.00 0.00 38 997.3
20260504141049 17 252 8.0 12.9 0.00 0.00 0.00 45 996.9
20260504140546 17 238 6.4 17.7 0.00 0.00 0.00 44 996.8
20260504130510 16 276 4.8 14.5 0.00 0.00 0.00 44 996.1
20260504110358 12 222 3.2 11.3 0.00 0.00 0.00 50 995.3
20260504100315 12 210 4.8 11.3 0.00 0.00 0.00 49 996.3
20260504081708 12 194 3.2 11.3 0.00 0.00 0.00 47 997.9
20260504081205 12 208 3.2 8.0 0.00 0.00 0.00 46 998.1
20260504080701 12 206 6.4 9.7 0.00 0.00 0.00 46 998.1
20260504080158 13 204 4.8 12.9 0.00 0.00 0.00 45 998.1
20260504070125 10 205 1.6 3.2 0.00 0.00 0.00 55 999.3
20260504050514 11 212 3.2 3.2 0.00 0.00 0.00 49 1001.5
20260504050011 11 202 3.2 3.2 0.00 0.00 0.00 48 1001.6
20260504045508 11 212 3.2 3.2 0.00 0.00 0.00 48 1001.7
20260504045003 11 209 1.6 3.2 0.00 0.00 0.00 48 1001.8
20260504044501 11 207 3.2 3.2 0.00 0.00 0.00 47 1001.9
20260504043958 11 221 1.6 3.2 0.00 0.00 0.00 49 1001.9
20260504043455 11 221 1.6 1.6 0.00 0.00 0.00 48 1002.0
20260504042952 11 221 1.6 3.2 0.00 0.00 0.00 48 1001.9
20260504042449 11 222 1.6 1.6 0.00 0.00 0.00 48 1002.1
20260504041946 11 222 1.6 1.6 0.00 0.00 0.00 47 1002.5
20260504041442 11 222 1.6 1.6 0.00 0.00 0.00 47 1002.4
20260504040937 12 222 1.6 1.6 0.00 0.00 0.00 49 1002.6
20260504040436 12 222 1.6 1.6 0.00 0.00 0.00 49 1002.7
20260504035931 12 222 1.6 1.6 0.00 0.00 0.00 49 1002.7
20260504035429 12 222 1.6 1.6 0.00 0.00 0.00 49 1002.8
20260504034925 12 222 1.6 1.6 0.00 0.00 0.00 48 1002.9
20260504034423 12 222 1.6 1.6 0.00 0.00 0.00 48 1003.1
20260504033920 12 222 1.6 1.6 0.00 0.00 0.00 46 1002.8
20260504033418 12 223 1.6 1.6 0.00 0.00 0.00 47 1002.9
20260504032914 12 222 1.6 1.6 0.00 0.00 0.00 47 1003.1
20260504032411 12 222 1.6 1.6 0.00 0.00 0.00 46 1003.1
20260504031908 13 223 1.6 1.6 0.00 0.00 0.00 45 1003.4
20260504031405 13 222 1.6 1.6 0.00 0.00 0.00 46 1003.4
20260504030902 13 223 1.6 1.6 0.00 0.00 0.00 47 1003.3
20260504030359 13 223 1.6 1.6 0.00 0.00 0.00 44 1003.3
20260504025854 13 223 1.6 1.6 0.00 0.00 0.00 45 1003.5
20260504025352 13 223 1.6 1.6 0.00 0.00 0.00 46 1003.4
20260504024848 13 223 1.6 1.6 0.00 0.00 0.00 43 1003.3
20260504024345 14 223 1.6 1.6 0.00 0.00 0.00 42 1003.5
20260504023842 14 223 1.6 1.6 0.00 0.00 0.00 42 1003.6
20260504023339 14 223 1.6 1.6 0.00 0.00 0.00 41 1003.6
20260504022834 15 223 1.6 1.6 0.00 0.00 0.00 40 1003.4
20260504022331 15 223 1.6 1.6 0.00 0.00 0.00 41 1003.5
20260504021828 15 223 1.6 1.6 0.00 0.00 0.00 38 1003.5
20260504021325 15 223 1.6 1.6 0.00 0.00 0.00 38 1003.7
20260504020822 15 224 0.0 1.6 0.00 0.00 0.00 38 1003.4
20260504020319 16 223 1.6 1.6 0.00 0.00 0.00 37 1003.5
20260504015815 16 224 1.6 1.6 0.00 0.00 0.00 36 1003.4
20260504015311 16 223 1.6 1.6 0.00 0.00 0.00 35 1003.7
20260504014808 16 223 1.6 3.2 0.00 0.00 0.00 33 1003.8
20260504014304 17 224 0.0 1.6 0.00 0.00 0.00 34 1003.8
20260504013802 17 227 1.6 1.6 0.00 0.00 0.00 33 1003.7
20260504013259 17 226 1.6 1.6 0.00 0.00 0.00 32 1003.8
20260504012755 17 226 1.6 1.6 0.00 0.00 0.00 31 1003.9
20260504012254 18 244 1.6 1.6 0.00 0.00 0.00 30 1003.7
20260504011750 18 245 1.6 3.2 0.00 0.00 0.00 29 1003.9
20260504011247 18 236 0.0 1.6 0.00 0.00 0.00 29 1003.6
20260504010743 18 235 1.6 1.6 0.00 0.00 0.00 28 1003.9
20260504010238 18 263 1.6 3.2 0.00 0.00 0.00 27 1004.0
20260504005736 19 241 1.6 3.2 0.00 0.00 0.00 27 1003.8